sat.trackr.live / text

‹ back to catalog

ONEWEB-0032

NORAD 45141 · 2020-008L

PAYLOAD ACTIVE UNKNOWN

§ Identity

Operator
Country
UK
Launch date
2020-02-06
Launch site
TYMSC
Launch vehicle
Mass (kg)
RCS (m²)

Purposes: comms

External: N2YO · Heavens-Above · Gunter

§ Orbital elements

Epoch: 2026-05-25T04:05:42.971136Z

Period
109.89 min
Inclination
87.8851°
Eccentricity
0.0002343
Mean motion
13.10370995 rev/d
Perigee alt
1,219.9 km
Apogee alt
1,223.5 km
Semi-major
7,599.9 km
B*
1.1316e-3
RAAN
40.8523°
Arg perigee
78.9932°
Mean anomaly
281.1459°
Rev number
30,528

§ Raw data

ONEWEB-00321 45141U 20008L   26145.17063624  .00000408  00000+0  11316-2 0  99972 45141  87.8851  40.8523 0002343  78.9932 281.1459 13.10370995305282

JSON: /api/v1/satellites/45141 · /tle

For live sub-satellite position, see the globe view (requires WebGL).

§ Visibility from observer

Set your observer location to see the next 7 days of passes ≥ 10°. The values pass through the URL so the page stays shareable.

No JS? Fill the form by hand. The geolocation button needs JavaScript.